Location: B�rgermoos
(47.6500°N, 9.0667°E)
Time: 07:39:03
(UTC+00:00)

A-11 Canister half - Pass Details

Date: 08 August 2021
Orbit: 1526 x 1683 km, 47.3° (Epoch: 20 September)

Event Time Altitude Azimuth Distance (km) Brightness Sun altitude
Rises 09:39:36 0° 241° (WSW) 4,921 11.5 51.1°
Reaches altitude 10° 09:42:45 10° 240° (WSW) 3,940 11.2 51.5°
Maximum altitude 09:52:51 72° 158° (SSE) 1,747 11.0 52.6°
Drops below altitude 10° 10:02:51 10° 77° (ENE) 3,906 11.5 53.7°
Sets 10:05:58 0° 75° (ENE) 4,878 11.8 54.0°
